SCP
0 0 0 0 0 0 0 0 0 0 0 0 0 0 0 1 1 1 1 1 1 1 1 1 1 1 1 2 2 2 2 2 2 2 2 1 2 2 2 2 1 1 1
0 0 0 0 0 0 0 0 0 0 0 0 0 0 0 0 1 1 1 1 1 1 1 1 1 1 1 2 3 2 2 2 2 2 2 1 2 2 2 1 1 1 1
0 0 0 0 0 0 0 0 0 0 0 0 0 0 0 0 1 1 1 1 1 1 1 1 1 2 2 3 4 3 2 2 2 2 2 1 1 1 1 1 1 1 1
0 0 0 0 0 0 0 0 0 0 0 0 0 0 0 0 0 0 1 1 1 1 1 1 2 2 4 4 4 3 2 2 2 2 2 1 1 1 1 1 1 1 1
0 0 0 0 0 0 0 0 0 0 0 0 0 0 0 0 0 0 0 0 1 1 1 1 1 2 3 4 3 2 2 2 2 2 1 1 1 1 1 1 1 1 1
0 0 0 0 0 0 0 0 0 0 0 0 0 0 0 0 0 0 0 0 0 1 1 1 1 1 2 2 2 2 2 2 2 1 1 1 1 1 1 1 1 1 1
0 0 0 0 0 0 0 0 0 0 0 0 0 0 0 0 0 0 0 0 0 0 1 1 1 1 1 1 1 2 2 2 1 1 1 1 1 1 1 1 1 1 1
0 0 0 0 0 0 0 0 0 0 0 0 0 0 0 0 0 0 0 1 1 0 1 1 1 1 1 1 1 1 2 1 1 1 1 1 1 1 1 1 1 1 1
0 0 0 0 0 0 0 0 0 0 0 0 0 0 0 0 0 0 1 1 1 0 0 1 1 1 1 1 1 1 1 1 1 1 1 1 1 1 1 1 1 1 1
0 0 0 0 0 0 0 0 0 0 0 0 0 0 0 0 0 0 1 1 1 0 0 0 0 1 1 0 1 1 1 1 0 0 0 0 0 0 1 1 1 1 1
0 0 0 0 0 0 0 0 0 0 0 0 0 0 0 0 0 0 0 0 0 0 0 1 1 0 0 0 0 0 0 0 0 0 0 0 0 0 0 1 1 1 1
0 0 0 0 0 0 0 0 0 0 0 0 0 0 0 0 0 0 0 0 0 0 0 1 0 0 0 0 0 0 0 0 0 0 0 0 0 0 0 0 1 1 1
0 0 0 0 0 0 0 0 0 0 0 0 0 0 0 0 0 0 0 0 0 0 0 0 0 0 0 0 0 0 0 0 0 0 0 0 1 0 0 0 1 1 1
0 0 0 0 0 0 0 0 0 0 0 0 0 0 0 0 0 0 0 0 0 0 0 0 0 0 0 0 0 0 0 0 0 0 0 0 1 1 0 0 1 1 2
1 1 1 1 1 0 0 0 0 0 0 0 0 0 0 0 0 0 0 0 0 0 0 0 0 0 0 0 0 0 0 0 0 0 0 0 0 0 0 1 1 2 3
0 1 1 1 1 1 0 0 0 0 0 0 0 0 0 0 0 0 0 0 0 0 0 0 0 0 0 0 0 0 0 0 0 0 0 0 0 0 0 0 1 2 3
0 0 1 1 1 1 0 0 0 0 0 0 0 0 0 0 0 0 0 0 0 0 0 0 0 0 0 0 0 0 0 0 0 0 0 0 0 0 0 0 1 1 1
0 0 1 1 1 1 0 0 0 0 0 0 0 0 0 0 0 0 0 0 0 0 0 0 0 0 0 0 0 0 0 0 0 0 0 0 0 0 0 0 0 0 0
0 0 1 1 1 1 0 0 0 0 0 0 0 0 0 0 0 0 0 0 0 0 0 0 0 0 0 0 0 0 0 0 0 0 0 0 0 0 0 0 0 0 1
0 1 1 2 1 1 0 0 0 0 0 0 0 0 0 0 0 0 0 0 0 0 0 0 0 0 0 0 0 0 0 0 0 0 0 0 0 0 0 0 0 0 0
0 1 2 2 1 1 1 0 0 0 0 0 0 0 0 0 0 0 0 0 0 0 0 0 0 0 0 0 0 0 0 0 0 0 0 0 0 0 0 0 0 0 0
1 1 2 2 2 1 1 1 0 0 0 0 0 0 0 0 0 0 0 0 0 0 0 0 0 0 0 0 0 0 0 0 0 0 0 0 0 0 0 0 0 0 0
1 2 2 2 2 2 1 1 1 1 0 0 0 0 0 0 0 0 0 0 0 0 0 0 0 0 0 0 0 0 0 0 0 0 0 0 0 0 0 0 0 0 0
1 2 2 3 2 2 2 1 1 1 0 0 0 0 0 0 0 0 0 0 0 0 0 0 0 0 0 0 0 0 0 0 0 0 0 0 0 0 0 0 0 0 0
1 2 3 3 3 2 2 1 1 1 0 0 0 0 0 0 0 0 0 0 0 0 0 0 0 0 0 0 0 0 0 0 0 0 0 0 0 0 0 0 0 0 0
2 2 3 3 2 2 2 1 1 0 0 0 0 0 0 0 0 0 0 0 0 0 0 0 0 0 0 0 0 0 0 0 0 0 0 0 0 0 0 0 0 0 0
Wind_Speed
1 1 6 7 8 8 9 9 10 10 10 10 11 11 11 12 12 12 12 12 13 13 13 13 12 11 11 12 11 11 12 11 11 10 11 11 11 11 11 11 10 7 11
3 2 7 8 8 8 9 9 10 10 10 10 10 10 11 11 11 11 11 12 12 13 13 13 12 11 11 12 12 12 12 12 12 11 11 10 11 11 11 11 10 7 11
5 3 5 8 8 8 8 9 9 9 10 10 10 10 11 11 11 11 11 12 12 12 12 13 12 13 13 13 13 13 13 13 12 12 10 5 6 10 11 11 11 11 11
6 4 5 8 8 8 8 9 9 9 9 10 10 10 10 11 11 11 11 12 12 12 12 13 13 14 15 15 14 13 13 13 13 11 6 5 5 10 11 11 11 11 11
6 4 5 8 8 8 8 8 9 9 9 9 10 10 10 10 10 11 11 11 12 12 12 12 13 14 14 15 14 14 15 15 14 10 6 5 5 11 12 12 11 10 10
5 4 5 8 8 8 8 8 8 8 8 9 9 9 10 10 10 10 10 11 11 12 13 13 13 13 14 14 14 15 15 15 11 7 6 5 5 11 12 11 11 11 10
5 4 5 8 8 8 7 8 7 7 7 8 8 9 9 10 10 10 10 10 11 12 12 12 13 13 13 14 14 14 14 13 8 6 6 5 7 12 12 12 11 11 10
7 5 4 8 8 7 7 7 7 7 7 7 8 8 9 9 10 10 10 11 11 11 12 12 12 13 13 13 13 13 13 11 9 7 5 4 9 11 11 11 11 11 11
6 5 3 3 4 5 6 6 6 6 6 7 7 8 8 9 10 10 10 10 11 11 11 12 12 12 13 13 13 13 13 13 6 4 6 4 9 11 11 10 11 11 11
5 4 3 3 2 2 2 4 5 5 6 6 6 7 8 9 9 9 9 9 10 10 10 10 11 11 12 13 13 13 13 10 5 4 3 5 10 10 10 10 10 10 10
5 3 3 3 2 2 1 2 3 3 4 4 4 7 6 4 4 4 7 9 9 9 9 9 9 10 11 11 13 13 10 4 4 3 3 7 9 10 10 10 9 10 10
4 4 3 4 3 2 1 1 1 1 2 1 2 3 2 2 2 4 6 8 9 8 8 8 9 9 7 4 8 9 4 4 4 3 4 9 9 10 10 10 9 10 10
5 5 4 4 3 3 1 1 1 1 1 1 2 2 2 2 2 2 2 3 4 5 4 5 5 4 4 3 3 4 4 3 3 2 4 9 9 10 10 9 9 9 9
5 4 4 4 4 3 2 2 1 1 1 1 1 2 3 2 2 2 2 2 2 2 2 3 3 4 4 4 5 4 4 3 3 2 3 9 9 9 9 9 9 9 9
5 4 4 5 5 3 3 2 2 2 2 2 2 2 3 2 2 2 1 2 2 2 2 3 3 4 4 4 4 5 4 4 4 3 3 8 9 9 9 9 9 8 8
5 5 4 5 5 4 3 2 2 1 2 2 2 2 3 3 2 2 2 2 2 2 2 3 3 3 3 3 4 4 4 4 4 4 3 5 8 9 9 8 8 7 7
5 5 5 5 4 4 4 3 3 2 2 2 2 2 3 3 3 3 3 2 2 2 3 3 4 3 4 4 4 4 4 3 4 4 3 3 3 7 8 8 8 7 8
5 5 5 5 5 4 4 3 2 2 2 2 2 2 3 3 4 3 3 2 2 3 3 3 3 4 4 3 3 3 3 3 3 3 3 3 3 3 5 8 8 8 9
6 6 5 5 5 5 4 3 3 2 2 2 2 2 2 3 4 4 3 2 3 3 3 3 3 3 3 3 3 3 3 2 2 3 3 3 3 3 3 4 7 7 8
6 6 5 5 5 5 3 3 2 2 2 1 2 2 3 3 4 4 3 3 3 3 3 3 3 3 3 3 4 4 3 2 2 3 2 2 2 3 3 3 3 4 7
5 5 5 5 4 4 3 2 2 1 1 1 1 2 3 3 3 4 3 3 3 3 3 3 3 4 2 2 4 3 3 3 3 2 2 2 2 2 2 3 2 2 3
6 5 5 5 4 4 3 3 2 2 1 1 1 2 2 3 3 4 4 3 3 3 3 3 3 2 1 1 3 3 2 3 3 2 2 2 2 2 2 2 3 2 2
5 6 6 5 5 4 3 3 3 3 2 2 1 1 1 2 3 3 4 4 3 3 3 3 3 3 2 0 1 3 3 2 1 2 2 2 1 1 1 1 2 2 2
5 5 6 5 5 4 4 5 5 4 2 2 1 1 0 1 2 3 4 4 3 3 3 3 2 2 3 1 0 1 2 4 3 0 2 2 1 1 1 1 2 2 2
5 5 5 5 4 4 5 5 5 3 2 1 1 1 1 0 1 2 3 3 3 3 3 3 2 2 2 2 1 1 1 1 2 3 1 1 2 1 1 1 1 1 1
5 5 5 5 4 4 5 5 5 5 3 3 2 1 0 0 1 1 2 3 3 3 3 3 3 3 2 2 1 1 2 2 2 2 2 1 0 1 1 0 1 1 1
Wind_Direction
244 270 73 66 67 66 63 63 62 65 65 66 71 75 74 73 73 73 73 72 72 73 74 77 78 81 89 94 95 98 99 97 92 88 91 96 96 95 97 99 98 98 103
161 125 84 76 74 72 69 66 67 68 68 71 74 75 75 76 77 77 75 73 73 74 74 76 75 77 89 97 95 95 96 94 89 86 85 87 92 95 98 99 98 99 102
130 112 95 85 79 79 76 72 72 74 75 75 76 78 78 77 78 79 79 78 76 76 75 74 72 72 85 92 91 91 89 89 87 84 79 74 88 95 98 99 100 99 98
131 120 105 96 87 84 80 76 77 79 79 80 81 81 81 81 82 82 82 81 79 78 79 77 75 75 82 85 87 89 87 83 82 79 70 64 77 95 96 98 100 99 99
126 119 112 103 94 87 83 82 81 82 81 83 85 84 83 83 84 84 84 83 82 81 82 81 80 80 82 84 86 86 86 85 81 72 66 64 71 92 93 93 95 97 98
127 127 118 109 101 94 88 87 85 84 85 86 89 88 86 85 86 88 87 85 85 85 84 84 83 83 84 86 86 87 88 85 78 69 63 68 76 91 93 93 93 93 95
137 142 131 117 110 101 95 94 91 89 90 90 91 91 90 90 90 91 90 89 89 89 86 85 84 83 84 84 86 87 88 84 80 72 67 68 81 90 91 92 92 93 91
143 145 139 128 121 111 104 102 99 94 97 99 94 94 93 91 91 92 91 90 90 90 89 87 85 83 83 84 85 87 86 85 82 79 71 71 87 90 90 90 91 90 89
139 137 143 141 126 122 114 109 101 96 101 102 102 98 96 94 95 95 93 91 90 90 89 88 85 85 84 83 83 83 85 82 71 73 82 79 91 92 91 90 89 88 86
135 141 147 148 135 130 130 118 110 105 109 110 106 102 101 96 95 98 94 95 95 93 91 88 85 85 85 84 83 80 81 77 63 63 67 90 96 97 96 93 89 87 86
138 154 159 152 154 155 153 132 108 101 96 101 99 102 98 79 73 85 95 98 98 96 92 90 88 87 83 82 85 82 78 69 69 63 67 93 96 98 98 96 92 89 87
157 170 165 165 168 169 160 111 73 74 71 73 75 86 89 96 87 86 86 93 92 92 90 89 88 84 72 66 78 80 69 68 66 62 79 91 95 95 94 92 90 90 88
164 165 169 168 170 170 157 128 92 69 71 70 75 92 96 87 80 72 64 64 68 74 65 69 66 64 72 78 79 77 76 72 59 55 73 85 90 92 92 91 90 90 89
151 163 170 159 157 165 141 126 121 111 90 85 91 102 105 97 85 86 83 74 61 63 73 68 69 74 78 80 85 84 78 77 66 51 69 81 86 89 91 92 92 90 89
145 155 149 142 146 146 132 133 123 122 118 114 100 102 114 113 110 100 92 84 79 78 82 83 84 81 80 79 86 92 86 80 74 59 60 77 84 88 87 87 88 89 92
149 152 146 142 142 133 129 127 127 126 107 101 108 124 119 118 118 107 94 87 86 94 95 95 91 84 76 81 83 88 87 82 75 71 56 63 73 80 82 81 78 80 93
154 149 146 144 131 128 129 131 121 123 113 107 114 119 116 116 117 110 104 97 93 97 92 84 78 78 80 79 78 84 88 88 86 78 68 52 52 66 74 74 71 77 91
150 148 150 138 130 127 124 122 114 114 114 108 108 113 119 119 116 107 104 101 99 93 91 90 83 81 73 73 74 70 75 79 87 88 75 61 48 47 59 69 70 78 89
155 149 146 139 137 136 131 120 110 102 96 97 99 102 114 121 116 110 110 107 100 91 90 99 82 91 87 79 79 69 63 69 75 93 81 68 59 58 49 61 65 72 80
156 148 145 141 137 133 121 100 84 76 72 80 103 110 112 115 113 110 113 108 100 96 87 91 91 79 93 96 87 70 55 53 62 75 89 77 63 67 60 59 53 54 67
151 146 146 140 144 137 129 127 122 120 102 80 115 120 120 124 122 116 120 112 109 114 120 116 107 91 82 96 86 58 31 36 55 56 61 73 71 67 68 68 60 48 48
157 153 147 147 150 156 156 153 150 141 133 129 116 105 124 130 135 132 132 132 128 119 114 117 116 109 120 118 114 99 45 12 11 32 46 70 69 74 82 86 68 61 53
158 160 157 155 154 155 144 117 97 72 51 51 64 73 123 141 141 135 141 141 143 137 143 146 142 137 152 220 125 134 139 177 316 353 15 40 49 66 67 80 81 65 68
170 165 157 156 154 145 135 136 140 142 152 185 180 168 86 128 140 137 140 143 146 146 155 168 155 149 144 153 116 103 147 152 148 100 349 1 20 52 57 92 84 73 78
160 154 153 150 143 140 136 143 143 142 160 151 115 98 72 54 127 137 141 140 144 153 164 162 150 150 150 158 162 135 101 95 120 142 171 330 0 352 28 101 112 109 105
147 142 141 140 131 133 135 139 144 150 150 131 120 119 101 55 68 115 136 137 143 149 166 171 167 162 163 156 159 161 157 149 157 144 159 182 264 314 348 23 146 166 161